[[{"header":{"parameterUnit":"m.s-1","parameterCategory":1,"la1":30.2992,"la2":30.254,"lo1":-89.0895,"lo2":-89.0443,"dy":0.0025,"dx":0.0025,"nx":19,"ny":19,"refTime":"2026-04-25T09:00:00:Z","depth":0,"parameterNumber":2,"parameterNumberName":"U-component_of_WINDS"},"data":[0,0,0,-0.6801,-0.6798,-0.6649,-0.6648,-0.6468,-0.6467,0,0,0,0,0,0,0,0,0,0,0,-0.6855,-0.6854,-0.6801,-0.6798,-0.6649,-0.6648,-0.6468,-0.6467,0,0,0,0,0,0,0,0,0,0,0,-0.6856,-0.6855,-0.6854,-0.6797,-0.6649,-0.6648,-0.6469,-0.6577,0,0,0,0,0,0,0,0,0,0,-0.672,-0.678,-0.6855,-0.6854,-0.6797,-0.6649,-0.6648,-0.6582,-0.657,-0.6542,0,-0.6522,0,-0.6492,-0.6456,-0.6455,0,0,0,-0.679,-0.679,-0.6741,-0.6853,-0.6795,-0.6649,-0.6714,-0.6575,-0.6562,-0.6526,-0.6519,-0.6512,-0.6489,-0.6455,-0.6454,-0.6325,-0.6325,0,0,-0.6798,-0.6833,-0.675,-0.6733,-0.676,-0.6719,-0.6709,-0.6567,-0.656,-0.6518,-0.6508,-0.6486,-0.6454,-0.6452,-0.6325,-0.6325,0,0,0,-0.6827,-0.6839,-0.6793,-0.6741,-0.6713,-0.6715,-0.6704,-0.6566,-0.6549,-0.6505,-0.6484,-0.6453,-0.6451,-0.6325,-0.6325,-0.6349,0,0,0,-0.6832,-0.6856,-0.6797,-0.6817,-0.6716,-0.6639,-0.6707,-0.6559,-0.6542,-0.6485,-0.6453,-0.6449,-0.6326,-0.6325,-0.6349,-0.6354,0,0,0,-0.6861,-0.6859,-0.6842,-0.6819,-0.6757,-0.664,-0.6614,-0.6554,-0.6529,-0.6455,-0.6449,-0.6326,-0.6325,-0.6349,-0.6354,-0.633,0,0,0,-0.6902,-0.6864,-0.6843,-0.679,-0.6758,-0.6658,-0.6615,-0.6537,-0.6477,-0.6452,-0.6326,-0.6325,-0.6349,-0.6354,-0.6331,-0.6317,-0.6315,0,0,-0.6873,-0.6861,-0.6828,-0.6805,-0.6717,-0.6678,-0.6592,-0.6502,-0.6461,-0.6372,-0.6368,-0.6349,-0.6354,-0.6331,-0.6293,-0.6292,0,0,0,-0.683,-0.6807,-0.6776,-0.6722,-0.6655,-0.6596,-0.6517,-0.6483,-0.6406,-0.6424,-0.6334,-0.6335,-0.632,-0.6312,-0.6311,-0.6295,-0.6323,-0.6323,-0.6323,-0.6837,-0.679,-0.6731,-0.6666,-0.6614,-0.6533,-0.6486,-0.6426,-0.6392,-0.6372,-0.6344,-0.6328,-0.6319,-0.6318,-0.6302,-0.6334,-0.6334,-0.6334,-0.6334,-0.6789,-0.6748,-0.6705,-0.6633,-0.6582,-0.652,-0.644,-0.6418,-0.6351,-0.6344,-0.6328,-0.6324,-0.6318,-0.6302,-0.6335,-0.6335,-0.6335,-0.6335,-0.6335,-0.6788,-0.676,-0.6722,-0.6639,-0.658,-0.6514,-0.6453,-0.6408,-0.6365,-0.635,-0.6315,-0.6315,-0.6308,-0.6337,-0.6337,-0.6337,-0.6337,-0.6337,-0.6337,-0.6801,-0.6758,-0.6713,-0.6639,-0.6598,-0.6539,-0.6457,-0.6415,-0.6356,-0.6328,-0.6328,-0.6295,-0.6328,-0.6336,-0.6335,-0.6336,-0.6336,-0.6336,-0.6336,-0.6768,-0.6769,-0.6699,-0.6659,-0.6568,-0.6512,-0.6457,-0.6375,-0.6333,-0.6304,-0.6274,-0.6306,-0.629,-0.629,-0.6297,-0.6286,-0.6286,-0.6286,-0.6286,-0.6766,-0.6755,-0.6674,-0.6612,-0.6547,-0.649,-0.641,-0.6346,-0.6279,-0.625,-0.6245,-0.6251,-0.6253,-0.6235,-0.6237,-0.6242,-0.6217,-0.6217,-0.6217,-0.6743,-0.6723,-0.6665,-0.6603,-0.6529,-0.6465,-0.6388,-0.6317,-0.6241,-0.6213,-0.6226,-0.6228,-0.6237,-0.6242,-0.6214,-0.6218,-0.6227,0,0]},{"header":{"parameterUnit":"m.s-1","parameterCategory":1,"la1":30.2992,"la2":30.254,"lo1":-89.0895,"lo2":-89.0443,"dy":0.0025,"dx":0.0025,"nx":19,"ny":19,"refTime":"2026-04-25T09:00:00:Z","depth":0,"parameterNumber":3,"parameterNumberName":"V-component_of_WINDS"},"data":[0,0,0,5.8292,5.8294,5.8408,5.8408,5.856,5.8562,0,0,0,0,0,0,0,0,0,0,0,5.8266,5.8268,5.8292,5.8295,5.8408,5.8408,5.856,5.8562,0,0,0,0,0,0,0,0,0,0,0,5.8266,5.8267,5.8269,5.8295,5.8408,5.8408,5.8559,5.847,0,0,0,0,0,0,0,0,0,0,5.8359,5.8344,5.8267,5.8269,5.8296,5.8408,5.8408,5.8466,5.8476,5.8513,0,5.8552,0,5.856,5.8573,5.8573,0,0,0,5.8287,5.8336,5.836,5.8269,5.8297,5.8408,5.8355,5.8471,5.8483,5.8526,5.8554,5.8559,5.8562,5.8574,5.8574,5.8824,5.8826,0,0,5.8281,5.8289,5.8352,5.8368,5.8355,5.8351,5.8358,5.8478,5.8507,5.8554,5.8562,5.8565,5.8575,5.8576,5.8823,5.8824,0,0,0,5.8268,5.8285,5.8306,5.8362,5.8382,5.8355,5.8363,5.8501,5.8508,5.8564,5.8566,5.8576,5.8578,5.8821,5.8823,5.891,0,0,0,5.8264,5.8278,5.8304,5.831,5.838,5.8444,5.8384,5.8499,5.8513,5.8566,5.8576,5.8579,5.8819,5.8822,5.8904,5.8949,0,0,0,5.8256,5.8277,5.8297,5.831,5.836,5.8442,5.8455,5.8502,5.8515,5.8573,5.858,5.8818,5.8822,5.8899,5.894,5.9019,0,0,0,5.8248,5.8367,5.8298,5.8432,5.836,5.8496,5.8454,5.8553,5.8614,5.8577,5.882,5.8823,5.8897,5.8934,5.9014,5.9089,5.9121,0,0,5.8403,5.8386,5.8465,5.8406,5.8558,5.8478,5.864,5.8684,5.8679,5.8775,5.8781,5.8906,5.8939,5.9018,5.9295,5.9321,0,0,0,5.8517,5.8574,5.8612,5.8673,5.8714,5.8752,5.8771,5.8788,5.887,5.8732,5.8955,5.8974,5.902,5.9056,5.9078,5.9117,5.884,5.8839,5.8839,5.8747,5.8739,5.8869,5.8876,5.8935,5.8957,5.9004,5.9029,5.8998,5.9052,5.9081,5.9251,5.9293,5.9309,5.935,5.9118,5.9119,5.9119,5.9119,5.8974,5.9054,5.9018,5.9131,5.9121,5.9213,5.9239,5.9215,5.9299,5.9227,5.9267,5.9191,5.9337,5.9373,5.9126,5.9125,5.9124,5.9123,5.9123,5.9125,5.9162,5.9185,5.9276,5.9345,5.9346,5.943,5.9416,5.9402,5.9442,5.9472,5.947,5.9468,5.9457,5.9458,5.9459,5.9459,5.9459,5.946,5.9273,5.9296,5.9371,5.9428,5.9468,5.9517,5.9542,5.9579,5.9615,5.9598,5.9598,5.9564,5.9354,5.9302,5.9469,5.9467,5.9466,5.9465,5.9465,5.9508,5.9454,5.9571,5.9611,5.9678,5.975,5.9732,5.9809,5.9837,5.9879,5.9837,5.9684,5.9664,5.9646,5.9603,5.9838,5.9838,5.9838,5.9838,5.9636,5.9627,5.9745,5.9811,5.9873,5.9871,6.0001,6.0022,6.0034,6.005,6.0014,5.9956,5.9938,5.9928,5.9905,5.9865,6.0161,6.0161,6.0162,5.9781,5.9778,5.9893,5.991,5.9962,6.0006,6.0129,6.0203,6.0204,6.0174,6.0063,6.005,5.9955,5.9925,5.9892,5.9856,5.9782,0,0]}]]